CZ-4 DEB, 35331

Orbit data source: Space-Track

CZ-4 DEB, 35331 is space debris in SSO originally from a launch on Thu, 14 Oct 1999 UTC launched from the Taiyaun Space Center, China (TSC). Debris objects in space refer to the collection of defunct objects orbiting the Earth. Examples of debris include non-operational satellites, rocket bodies, and fragments generated from explosions, collisions, or faulty payload assembly.

Loading next visibility...
Identifier
35331, 1999-057SK
Orbit
SSO
Country
Flag of CNCN / PRC
Related business
Manufacturer
Unknown
Mission
Spacecraft
Bus & Motor
Unknown
Mass
Unknown
Launch date (UTC)
1999-10-14 (26 years ago)
Launch vehicle
Unknown
Launch site
Taiyaun Space Center, China (TSC)
Object type
Payload
Rocket body
Debris
Shape & HBR
Unknown shape, 0.1 m
Radar Cross Section
Small (<0.1 m²)

Expand to show TLE details & history
Last TLE update: 1 day ago

TLE from 1 day ago
0 CZ-4 DEB
1 35331U 99057SK  26037.25619159  .00013867  00000-0  19384-2 0  9993
2 35331  98.5370 146.5887 0070663   8.0714  21.7454 14.76006743638918
Epoch: 2026-02-06T06:08Z
TLE epoch observation values (Epoch: 2026-02-06T06:08:54.953Z)
Latitude
29.80455°
Longitude
-86.94268°
Altitude
599.701 km
Speed
7.587 km/s
True Right ascension
09h 26m 43s
True Declination
29° 39' 11"
Sunlit
Object was in full shadow at epoch
Visualization orbit readout
Latitude
Unknown
Longitude
Unknown
Altitude
Unknown
Speed
Unknown
Apparent Right ascension
Unknown
Apparent Declination
Unknown
Sunlit
N/A
Visualization observer readout
Local Sidereal Time
12:20:00
Azimuth
Unknown
Elevation
Unknown
Doppler factor
Unknown
Orbital elements
Apogee altitude
688.618 km
Perigee altitude
589.447 km
Semi-major axis
7,017.17 km
Eccentricity
0.00707
Inclination
98.537°
RAAN
146.5887°
Arg. of periapsis
8.0714°
True anomaly
22.04787°
Mean anomaly
21.7454°
Eccentric anomaly
21.89639°
Mean motion
3.69233 °/min
Orbital period
97.5 mins
BSTAR
0.0019384
Loading maneuver chart data...
Computing Atmospheric mass density...

Documentation

Showing up to 5 results
|